EW6055 Weather Reports


Display with metric or nautical units.
time (UTC)temp
F
wind
direction
speed
MPH
gust
MPH
rain 1hr
in
rain 24hr
in
rain mn
in
humidity
%
barometer
mb
20260902065003 61 186 0.0 6.0 0.00 0.00 0.00 79 1009.7
20260902064502 61 0 0.0 0.0 0.00 0.00 0.00 79 1009.7
20260902064003 61 0 0.0 0.0 0.00 0.00 0.00 79 1009.7
20260902063502 61 0 0.0 0.0 0.00 0.00 0.00 79 1009.7
20260902063002 61 0 0.0 0.0 0.00 0.00 0.00 79 1009.8
20260902062502 61 0 0.0 0.0 0.00 0.00 0.00 78 1009.8
20260902062003 61 0 0.0 0.0 0.00 0.00 0.00 78 1009.8
20260902061502 61 0 0.0 0.0 0.00 0.00 0.00 77 1009.7
20260902061003 61 0 0.0 0.0 0.00 0.00 0.00 77 1009.7
20260902060502 61 0 0.0 0.0 0.00 0.00 0.00 77 1009.7
20260902060002 62 0 0.0 0.0 0.00 0.00 0.00 77 1009.7
20260902055502 62 0 0.0 0.0 0.00 0.00 0.00 76 1009.7
20260902055002 62 0 0.0 0.0 0.00 0.00 0.00 76 1009.9
20260902054524 62 0 0.0 0.0 0.00 0.00 0.00 76 1010.0
20260902054002 62 0 0.0 0.0 0.00 0.00 0.00 76 1010.1
20260902053502 62 0 0.0 0.0 0.00 0.00 0.00 75 1010.1
20260902053003 62 137 0.0 3.0 0.00 0.00 0.00 75 1010.0
20260902052502 62 137 0.0 3.0 0.00 0.00 0.00 75 1010.1
20260902052002 62 0 0.0 0.0 0.00 0.00 0.00 75 1010.0
20260902051502 62 175 0.0 1.0 0.00 0.00 0.00 75 1009.9
20260902051002 62 210 0.0 3.0 0.00 0.00 0.00 75 1010.0
20260902050502 62 214 0.0 3.0 0.00 0.00 0.00 75 1010.0
20260902050004 62 213 0.0 1.0 0.00 0.00 0.00 74 1010.0
20260902045502 62 0 0.0 0.0 0.00 0.00 0.00 74 1010.0
20260902045002 62 0 0.0 0.0 0.00 0.00 0.00 74 1009.9
20260902044502 62 0 0.0 0.0 0.00 0.00 0.00 74 1009.9
20260902044002 62 0 0.0 0.0 0.00 0.00 0.00 74 1009.9
20260902043523 62 0 0.0 0.0 0.00 0.00 0.00 74 1009.9
20260902043002 62 0 0.0 0.0 0.00 0.00 0.00 74 1010.0
20260902042503 62 0 0.0 0.0 0.00 0.00 0.00 74 1010.0
20260902042002 63 0 0.0 0.0 0.00 0.00 0.00 74 1009.9
20260902041502 63 194 0.0 2.0 0.00 0.00 0.00 74 1009.9
20260902041003 63 194 0.0 2.0 0.00 0.00 0.00 74 1009.9
20260902040523 63 194 0.0 2.0 0.00 0.00 0.00 74 1009.9
20260902040002 63 182 0.0 2.0 0.00 0.00 0.00 73 1009.8
20260902035502 63 197 0.0 3.0 0.00 0.00 0.00 73 1009.8
20260902035002 63 199 0.0 3.0 0.00 0.00 0.00 73 1009.8
20260902034502 63 177 0.0 4.0 0.00 0.00 0.00 74 1009.7
20260902034002 63 180 0.0 4.0 0.00 0.00 0.00 74 1009.8
20260902033503 63 0 0.0 0.0 0.00 0.00 0.00 74 1009.8
20260902033003 63 0 0.0 0.0 0.00 0.00 0.00 74 1009.8
20260902032502 63 0 0.0 0.0 0.00 0.00 0.00 73 1009.8
20260902032002 64 0 0.0 0.0 0.00 0.00 0.00 73 1009.8
20260902031503 64 185 0.0 3.0 0.00 0.00 0.00 73 1009.7
20260902031002 64 181 1.0 4.0 0.00 0.00 0.00 73 1009.7
20260902030502 64 175 0.0 4.0 0.00 0.00 0.00 73 1009.7
20260902030003 64 178 0.0 1.0 0.00 0.00 0.00 73 1009.7
20260902025523 64 216 0.0 2.0 0.00 0.00 0.00 72 1009.7
20260902025002 64 207 0.0 3.0 0.00 0.00 0.00 72 1009.7
20260902024503 64 210 0.0 3.0 0.00 0.00 0.00 72 1009.7
20260902024003 64 216 0.0 2.0 0.00 0.00 0.00 72 1009.7
20260902023503 64 0 0.0 0.0 0.00 0.00 0.00 72 1009.6
20260902023023 64 213 0.0 3.0 0.00 0.00 0.00 71 1009.6
20260902022523 64 205 0.0 3.0 0.00 0.00 0.00 71 1009.6
20260902022002 64 207 0.0 1.0 0.00 0.00 0.00 70 1009.5
20260902021503 64 222 0.0 7.0 0.00 0.00 0.00 70 1009.5
20260902021002 65 220 0.0 7.0 0.00 0.00 0.00 69 1009.5
20260902020502 65 218 0.0 4.0 0.00 0.00 0.00 69 1009.5
20260902020002 65 225 0.0 3.0 0.00 0.00 0.00 69 1009.5
20260902015503 65 232 0.0 3.0 0.00 0.00 0.00 69 1009.4
20260902015002 65 222 0.0 2.0 0.00 0.00 0.00 69 1009.4
20260902014503 66 215 0.0 3.0 0.00 0.00 0.00 68 1009.4
20260902014003 66 217 1.0 4.0 0.00 0.00 0.00 68 1009.4
20260902013523 66 210 1.0 4.0 0.00 0.00 0.00 68 1009.3
20260902013002 66 189 0.0 4.0 0.00 0.00 0.00 68 1009.4
20260902012502 66 178 0.0 4.0 0.00 0.00 0.00 67 1009.3
20260902012002 66 217 0.0 4.0 0.00 0.00 0.00 67 1009.4
20260902011503 66 210 0.0 4.0 0.00 0.00 0.00 66 1009.3
20260902011002 66 215 0.0 6.0 0.00 0.00 0.00 66 1009.3
20260902010502 66 220 0.0 6.0 0.00 0.00 0.00 65 1009.3
20260902010003 66 229 0.0 3.0 0.00 0.00 0.00 64 1009.3
20260902005523 67 220 0.0 6.0 0.00 0.00 0.00 64 1009.2
20260902005023 67 220 0.0 6.0 0.00 0.00 0.00 63 1009.2
20260902004502 67 204 0.0 4.0 0.00 0.00 0.00 63 1009.2
20260902004002 67 225 0.0 6.0 0.00 0.00 0.00 62 1009.2
20260902003524 67 218 0.0 6.0 0.00 0.00 0.00 62 1009.2
20260902003002 68 213 0.0 3.0 0.00 0.00 0.00 61 1009.1
20260902002502 68 223 1.0 5.0 0.00 0.00 0.00 61 1009.0
20260902002003 68 216 0.0 5.0 0.00 0.00 0.00 60 1009.0
20260902001502 69 190 0.0 5.0 0.00 0.00 0.00 60 1009.0
20260902001024 70 185 0.0 5.0 0.00 0.00 0.00 59 1008.9
20260902000503 70 192 0.0 5.0 0.00 0.00 0.00 59 1009.0
20260902000003 70 202 0.0 4.0 0.00 0.00 0.00 58 1009.0
20260901235502 71 196 0.0 2.0 0.00 0.00 0.00 58 1009.0
20260901235002 72 196 0.0 2.0 0.00 0.00 0.00 57 1009.0
20260901234523 72 204 0.0 1.0 0.00 0.00 0.00 58 1009.0
20260901234003 71 222 0.0 1.0 0.00 0.00 0.00 58 1009.0
20260901233503 71 218 0.0 1.0 0.00 0.00 0.00 58 1009.1
20260901233002 71 215 0.0 2.0 0.00 0.00 0.00 58 1009.3
20260901232524 71 216 0.0 2.0 0.00 0.00 0.00 59 1009.2
20260901232003 71 197 0.0 1.0 0.00 0.00 0.00 58 1009.3
20260901231502 71 206 0.0 1.0 0.00 0.00 0.00 58 1009.2
20260901231002 71 214 0.0 1.0 0.00 0.00 0.00 58 1009.3
20260901230502 71 221 0.0 2.0 0.00 0.00 0.00 58 1009.2
20260901230002 71 213 0.0 2.0 0.00 0.00 0.00 58 1009.3
20260901225503 71 198 0.0 1.0 0.00 0.00 0.00 59 1009.3
20260901225002 70 233 0.0 1.0 0.00 0.00 0.00 60 1009.4
20260901224502 71 231 0.0 1.0 0.00 0.00 0.00 59 1009.4
20260901224024 71 226 0.0 2.0 0.00 0.00 0.00 58 1009.4
20260901223502 72 223 0.0 2.0 0.00 0.00 0.00 58 1009.4
20260901223003 72 222 0.0 1.0 0.00 0.00 0.00 57 1009.4
20260901222502 72 243 0.0 2.0 0.00 0.00 0.00 58 1009.3
20260901222002 71 230 0.0 2.0 0.00 0.00 0.00 58 1009.3
20260901221503 71 207 0.0 2.0 0.00 0.00 0.00 58 1009.4
20260901221002 71 195 0.0 3.0 0.00 0.00 0.00 59 1009.3
20260901220524 71 188 0.0 3.0 0.00 0.00 0.00 58 1009.3
20260901220002 71 207 0.0 2.0 0.00 0.00 0.00 59 1009.3
20260901215503 70 212 0.0 4.0 0.00 0.00 0.00 59 1009.3
20260901215003 71 205 0.0 4.0 0.00 0.00 0.00 58 1009.4
20260901214502 71 196 0.0 2.0 0.00 0.00 0.00 58 1009.3
20260901214002 70 193 0.0 3.0 0.00 0.00 0.00 60 1009.3
20260901213503 70 193 0.0 3.0 0.00 0.00 0.00 61 1009.3
20260901213002 69 207 0.0 1.0 0.00 0.00 0.00 60 1009.4
20260901212503 69 216 0.0 7.0 0.00 0.00 0.00 60 1009.4
20260901212003 69 209 0.0 7.0 0.00 0.00 0.00 59 1009.4
20260901211502 69 169 0.0 2.0 0.00 0.00 0.00 60 1009.4
20260901211003 69 187 0.0 4.0 0.00 0.00 0.00 61 1009.4
20260901210502 69 196 0.0 4.0 0.00 0.00 0.00 63 1009.3
20260901210023 68 204 0.0 3.0 0.00 0.00 0.00 63 1009.4
20260901205503 68 188 1.0 6.0 0.00 0.00 0.00 62 1009.5
20260901205002 68 181 1.0 6.0 0.00 0.00 0.00 63 1009.5
20260901204503 67 144 1.0 3.0 0.00 0.00 0.00 65 1009.5
20260901204002 67 135 1.0 3.0 0.00 0.00 0.00 65 1009.5
20260901203523 67 167 0.0 3.0 0.00 0.00 0.00 66 1009.6
20260901203002 67 168 0.0 2.0 0.00 0.00 0.00 65 1009.6
20260901202503 67 169 0.0 2.0 0.00 0.00 0.00 66 1009.6
20260901202003 67 179 0.0 2.0 0.00 0.00 0.00 66 1009.6
20260901201523 67 216 0.0 2.0 0.00 0.00 0.00 67 1009.7
20260901201003 66 203 0.0 2.0 0.00 0.00 0.00 68 1009.6
20260901200502 66 216 0.0 7.0 0.00 0.00 0.00 69 1009.6
20260901200024 66 244 0.0 7.0 0.00 0.00 0.00 70 1009.7
20260901195502 65 207 0.0 2.0 0.00 0.00 0.00 70 1009.7
20260901195003 65 182 0.0 2.0 0.00 0.00 0.00 70 1009.7
20260901194503 65 180 0.0 2.0 0.00 0.00 0.00 71 1009.8
20260901194003 64 193 0.0 2.0 0.00 0.00 0.00 72 1009.8
20260901193502 64 189 0.0 2.0 0.00 0.00 0.00 72 1009.8
20260901193003 65 199 0.0 2.0 0.00 0.00 0.00 72 1009.9
20260901192503 65 222 0.0 2.0 0.00 0.00 0.00 72 1010.0
20260901192002 65 223 0.0 2.0 0.00 0.00 0.00 73 1010.1
20260901191503 65 219 0.0 2.0 0.00 0.00 0.00 72 1010.1
20260901191003 66 0 0.0 0.0 0.00 0.00 0.00 71 1010.1
20260901190502 66 199 0.0 5.0 0.00 0.00 0.00 71 1010.1
20260901190002 66 199 0.0 5.0 0.00 0.00 0.00 71 1010.1
20260901185503 65 0 0.0 0.0 0.00 0.00 0.00 73 1010.1
20260901185003 65 140 0.0 4.0 0.00 0.00 0.00 74 1010.1
20260901184502 64 140 0.0 4.0 0.00 0.00 0.00 75 1010.2
20260901184003 64 196 0.0 1.0 0.00 0.00 0.00 75 1010.2
20260901183503 64 168 0.0 4.0 0.00 0.00 0.00 76 1010.2
20260901183003 64 168 0.0 4.0 0.00 0.00 0.00 77 1010.3
20260901182502 63 190 0.0 1.0 0.00 0.00 0.00 77 1010.3
20260901182002 63 193 0.0 2.0 0.00 0.00 0.00 78 1010.3
20260901181503 63 190 0.0 2.0 0.00 0.00 0.00 77 1010.4
20260901181003 63 165 0.0 1.0 0.00 0.00 0.00 78 1010.3
20260901180503 63 183 0.0 3.0 0.00 0.00 0.00 78 1010.4
20260901180003 63 186 0.0 3.0 0.00 0.00 0.00 79 1010.4
20260901175503 62 157 0.0 1.0 0.00 0.00 0.00 79 1010.5
20260901175003 62 185 0.0 1.0 0.00 0.00 0.00 79 1010.6
20260901174502 62 195 0.0 1.0 0.00 0.00 0.00 80 1010.6
20260901174002 62 191 0.0 3.0 0.00 0.00 0.00 81 1010.5
20260901173524 62 193 0.0 3.0 0.00 0.00 0.00 81 1010.4
20260901173003 61 197 0.0 1.0 0.00 0.00 0.00 82 1010.4
20260901172524 61 200 0.0 1.0 0.00 0.00 0.00 83 1010.4
20260901172002 61 186 0.0 2.0 0.00 0.00 0.00 84 1010.3
20260901171503 60 187 0.0 4.0 0.00 0.00 0.00 85 1010.3
20260901171003 60 188 0.0 4.0 0.00 0.00 0.00 85 1010.3
20260901170523 60 0 0.0 0.0 0.00 0.00 0.00 86 1010.2
20260901170002 60 0 0.0 0.0 0.00 0.00 0.00 87 1010.2
20260901165503 60 0 0.0 0.0 0.00 0.00 0.00 87 1010.2
20260901165003 60 0 0.0 0.0 0.00 0.00 0.00 87 1010.3
20260901164503 60 0 0.0 0.0 0.00 0.00 0.00 88 1010.3
20260901164003 60 0 0.0 0.0 0.00 0.00 0.00 88 1010.3
20260901163523 60 0 0.0 0.0 0.00 0.00 0.00 87 1010.3
20260901163002 60 0 0.0 0.0 0.00 0.00 0.00 87 1010.2
20260901162502 60 0 0.0 0.0 0.00 0.00 0.00 87 1010.3
20260901162003 60 0 0.0 0.0 0.00 0.00 0.00 86 1010.4
20260901161502 60 0 0.0 0.0 0.00 0.00 0.00 87 1010.4
20260901161023 60 0 0.0 0.0 0.00 0.00 0.00 86 1010.4
20260901160503 60 0 0.0 0.0 0.00 0.00 0.00 86 1010.3
20260901160003 60 0 0.0 0.0 0.00 0.00 0.00 86 1010.3
20260901155502 60 0 0.0 0.0 0.00 0.00 0.00 85 1010.3
20260901155003 60 0 0.0 0.0 0.00 0.00 0.00 84 1010.3
20260901154502 60 0 0.0 0.0 0.00 0.00 0.00 84 1010.3
20260901154003 60 0 0.0 0.0 0.00 0.00 0.00 84 1010.3
20260901153502 60 0 0.0 0.0 0.00 0.00 0.00 84 1010.3
20260901153003 60 0 0.0 0.0 0.00 0.00 0.00 83 1010.3
20260901152503 60 0 0.0 0.0 0.00 0.00 0.00 83 1010.2
20260901152003 60 0 0.0 0.0 0.00 0.00 0.00 83 1010.2
20260901151524 60 0 0.0 0.0 0.00 0.00 0.00 83 1010.1
20260901151023 59 0 0.0 0.0 0.00 0.00 0.00 83 1010.0
20260901150502 59 0 0.0 0.0 0.00 0.00 0.00 84 1010.0
20260901150024 59 0 0.0 0.0 0.00 0.00 0.00 84 1010.0
20260901145503 59 0 0.0 0.0 0.00 0.00 0.00 84 1010.0
20260901145003 59 0 0.0 0.0 0.00 0.00 0.00 84 1009.9
20260901144503 59 0 0.0 0.0 0.00 0.00 0.00 84 1009.8
20260901144024 59 0 0.0 0.0 0.00 0.00 0.00 84 1009.8
20260901143502 59 0 0.0 0.0 0.00 0.00 0.00 83 1009.9
20260901143003 59 0 0.0 0.0 0.00 0.00 0.00 83 1009.9
20260901142502 59 0 0.0 0.0 0.00 0.00 0.00 83 1009.9
20260901142002 59 0 0.0 0.0 0.00 0.00 0.00 84 1009.8
20260901141503 59 0 0.0 0.0 0.00 0.00 0.00 84 1009.8
20260901141024 59 0 0.0 0.0 0.00 0.00 0.00 84 1009.8
20260901140502 59 0 0.0 0.0 0.00 0.00 0.00 84 1009.7
20260901140003 59 0 0.0 0.0 0.00 0.00 0.00 84 1009.7
20260901135523 59 0 0.0 0.0 0.00 0.00 0.00 84 1009.6
20260901135003 59 0 0.0 0.0 0.00 0.00 0.00 84 1009.7
20260901134502 59 0 0.0 0.0 0.00 0.00 0.00 84 1009.7
20260901134024 59 0 0.0 0.0 0.00 0.00 0.00 84 1009.6
20260901133502 59 99 0.0 1.0 0.00 0.00 0.00 84 1009.5
20260901133002 59 99 0.0 1.0 0.00 0.00 0.00 84 1009.6
20260901132502 59 0 0.0 0.0 0.00 0.00 0.00 84 1009.5
20260901132002 59 0 0.0 0.0 0.00 0.00 0.00 84 1009.5
20260901131503 59 0 0.0 0.0 0.00 0.00 0.00 84 1009.5
20260901131003 59 0 0.0 0.0 0.00 0.00 0.00 84 1009.5
20260901130503 59 0 0.0 0.0 0.00 0.00 0.00 84 1009.4
20260901130003 59 0 0.0 0.0 0.00 0.00 0.00 85 1009.4
20260901125502 59 0 0.0 0.0 0.00 0.00 0.00 85 1009.5
20260901125003 58 0 0.0 0.0 0.00 0.00 0.00 85 1009.4
20260901124503 58 182 0.0 1.0 0.00 0.00 0.00 85 1009.3
20260901124002 58 182 0.0 1.0 0.00 0.00 0.00 85 1009.3
20260901123502 58 0 0.0 0.0 0.00 0.00 0.00 85 1009.3
20260901123024 58 0 0.0 0.0 0.00 0.00 0.00 85 1009.3
20260901122523 58 202 0.0 1.0 0.00 0.00 0.00 85 1009.3
20260901122002 58 202 0.0 1.0 0.00 0.00 0.00 85 1009.4
20260901121503 58 205 0.0 1.0 0.00 0.00 0.00 85 1009.4
20260901121003 58 205 0.0 1.0 0.00 0.00 0.00 85 1009.4
20260901120502 58 0 0.0 0.0 0.00 0.00 0.00 86 1009.4
20260901120024 58 0 0.0 0.0 0.00 0.00 0.00 86 1009.5
20260901115502 58 0 0.0 0.0 0.00 0.00 0.00 86 1009.4
20260901115002 58 0 0.0 0.0 0.00 0.00 0.00 86 1009.4
20260901114503 58 173 0.0 2.0 0.00 0.00 0.00 86 1009.4
20260901114003 58 173 0.0 2.0 0.00 0.00 0.00 86 1009.4
20260901113503 58 0 0.0 0.0 0.00 0.00 0.00 87 1009.4
20260901113002 58 0 0.0 0.0 0.00 0.00 0.00 87 1009.4
20260901112524 57 162 0.0 2.0 0.00 0.00 0.00 87 1009.3
20260901112024 57 162 0.0 2.0 0.00 0.00 0.00 87 1009.3
20260901111503 57 0 0.0 0.0 0.00 0.00 0.00 87 1009.3
20260901111003 57 157 0.0 3.0 0.00 0.00 0.00 87 1009.3
20260901110524 57 158 0.0 3.0 0.00 0.00 0.00 87 1009.3
20260901110003 57 174 0.0 1.0 0.00 0.00 0.00 87 1009.2
20260901105524 57 211 0.0 1.0 0.00 0.00 0.00 87 1009.2
20260901105023 57 211 0.0 1.0 0.00 0.00 0.00 87 1009.2
20260901104503 57 0 0.0 0.0 0.00 0.00 0.00 87 1009.1
20260901104003 57 0 0.0 0.0 0.00 0.00 0.00 86 1009.1
20260901103503 57 0 0.0 0.0 0.00 0.00 0.00 86 1009.1
20260901103002 57 0 0.0 0.0 0.00 0.00 0.00 86 1009.0
20260901102502 57 199 0.0 1.0 0.00 0.00 0.00 86 1009.0
20260901102003 57 188 0.0 3.0 0.00 0.00 0.00 86 1009.0
20260901101502 57 186 0.0 3.0 0.00 0.00 0.00 86 1009.0
20260901101003 57 190 0.0 1.0 0.00 0.00 0.00 86 1009.0
20260901100503 58 0 0.0 0.0 0.00 0.00 0.00 86 1009.1
20260901100003 58 0 0.0 0.0 0.00 0.00 0.00 85 1009.1
20260901095503 58 0 0.0 0.0 0.00 0.00 0.00 85 1009.1
20260901095003 58 126 0.0 1.0 0.00 0.00 0.00 85 1009.0
20260901094503 58 126 0.0 1.0 0.00 0.00 0.00 85 1009.0
20260901094002 58 0 0.0 0.0 0.00 0.00 0.00 84 1009.0
20260901093502 58 191 0.0 2.0 0.00 0.00 0.00 84 1009.0
20260901093003 58 192 0.0 2.0 0.00 0.00 0.00 84 1008.9
20260901092503 58 187 0.0 1.0 0.00 0.00 0.00 84 1008.9
20260901092024 58 187 0.0 1.0 0.00 0.00 0.00 84 1008.8
20260901091524 58 187 0.0 1.0 0.00 0.00 0.00 83 1008.8
20260901091003 59 0 0.0 0.0 0.00 0.00 0.00 83 1008.7
20260901090502 59 0 0.0 0.0 0.00 0.00 0.00 83 1008.7
20260901090004 59 0 0.0 0.0 0.00 0.00 0.00 83 1008.6
20260901085503 59 179 0.0 2.0 0.00 0.00 0.00 83 1008.6
20260901085003 59 183 0.0 2.0 0.00 0.00 0.00 83 1008.5
20260901084524 59 181 0.0 4.0 0.00 0.00 0.00 83 1008.5
20260901084003 59 181 0.0 4.0 0.00 0.00 0.00 83 1008.5
20260901083503 59 0 0.0 0.0 0.00 0.00 0.00 83 1008.5
20260901083003 59 0 0.0 0.0 0.00 0.00 0.00 83 1008.5
20260901082503 59 193 0.0 2.0 0.00 0.00 0.00 83 1008.5
20260901082003 59 210 0.0 2.0 0.00 0.00 0.00 83 1008.5
20260901081503 59 215 0.0 2.0 0.00 0.00 0.00 83 1008.5
20260901081003 59 207 0.0 1.0 0.00 0.00 0.00 83 1008.5
20260901080503 59 207 0.0 1.0 0.00 0.00 0.00 82 1008.5
20260901080003 59 0 0.0 0.0 0.00 0.00 0.00 82 1008.4
20260901075503 60 200 0.0 4.0 0.00 0.00 0.00 82 1008.4
20260901075003 60 204 1.0 4.0 0.00 0.00 0.00 82 1008.3
20260901074503 60 216 1.0 10.0 0.00 0.00 0.00 82 1008.3
20260901074003 60 211 1.0 10.0 0.00 0.00 0.00 82 1008.3
20260901073503 60 193 1.0 5.0 0.00 0.00 0.00 82 1008.2
20260901073003 60 188 1.0 7.0 0.00 0.00 0.00 82 1008.3
20260901072524 60 186 1.0 7.0 0.00 0.00 0.00 81 1008.3
20260901072003 60 187 1.0 6.0 0.00 0.00 0.00 81 1008.3
20260901071502 60 187 1.0 6.0 0.00 0.00 0.00 80 1008.2
20260901071003 60 163 1.0 6.0 0.00 0.00 0.00 80 1008.2
20260901070503 61 147 1.0 6.0 0.00 0.00 0.00 79 1008.1
20260901070003 61 157 1.0 5.0 0.00 0.00 0.00 78 1008.1
20260901065503 61 171 1.0 6.0 0.00 0.00 0.00 78 1008.0